Regional Weather Roundup
Issued by NWS

Home | Current Version | Previous Version | Graphics & Text | Print | Product List | Glossary On
Versions: 1 2 3 4 5 6 7 8 9 10 11 12 13 14 15 16 17 18 19 20 21 22 23 24 25 26 27 28 29 30 31 32 33 34 35 36 37 38 39 40 41 42 43 44 45 46 47 48 49 50
000
ASUS43 KTOP 131759
RWRKS

WEATHER ROUNDUP FOR KANSAS
NATIONAL WEATHER SERVICE GOODLAND KS
100 PM CDT SUN JUL 13 2014

NOTE:  "FAIR" INDICATES FEW OR NO CLOUDS BELOW 12,000 FEET WITH NO
SIGNIFICANT WEATHER AND/OR OBSTRUCTIONS TO VISIBILITY.

KSZ001>006-013>018-027>032-041>047-131900-
NORTHWEST KANSAS

CITY           SKY/WX    TMP DP  RH WIND       PRES   REMARKS
GOODLAND       MOSUNNY   81  60  48 VRB7      30.24S
6HR MIN TEMP:  63; 6HR MAX TEMP:  83;

HAYS           PTSUNNY   81  63  54 N8        30.14S
HILL CITY      MOSUNNY   86  62  44 VRB3      30.15F
6HR MIN TEMP:  69; 6HR MAX TEMP:  88;

RUSSELL        MOSUNNY   84  63  49 NE9G21    30.10F
6HR MIN TEMP:  69; 6HR MAX TEMP:  85;

$$

KSZ061>065-074>080-084>089-131900-
SOUTHWEST KANSAS

CITY           SKY/WX    TMP DP  RH WIND       PRES   REMARKS
DODGE CITY     MOSUNNY   85  58  39 NE12      30.16F
6HR MIN TEMP:  69; 6HR MAX TEMP:  86;

ELKHART          N/A     85  61  44 S5          N/A
GARDEN CITY    SUNNY     83  59  44 NE9G18    30.19S
6HR MIN TEMP:  69; 6HR MAX TEMP:  83;

GREAT BEND     PTSUNNY   82  63  51 NE14      30.11R
LIBERAL        MOSUNNY   84  63  48 NE6       30.18F
$$

KSZ066>073-081>083-090>101-131900-
SOUTHEAST KANSAS

CITY           SKY/WX    TMP DP  RH WIND       PRES   REMARKS
CHANUTE        MOSUNNY   87  65  47 W6        30.01S
6HR MIN TEMP:  68; 6HR MAX TEMP:  87;

COFFEYVILLE    SUNNY     91  66  43 SW8       29.98F
6HR MIN TEMP:  70; 6HR MAX TEMP:  91;

HUTCHINSON     CLOUDY    80  70  71 N10       30.08R
6HR MIN TEMP:  73; 6HR MAX TEMP:  81; 6HR PCP: TRACE;

MEDICINE LODGE   N/A     86  71  60 N10       30.07S
NEWTON         PTSUNNY   82  66  57 N15       30.09R
PARSONS        SUNNY     90  66  45 W7        30.01S
6HR MIN TEMP:  70; 6HR MAX TEMP:  90;

WICHITA INTL   PTSUNNY   85  69  58 N14       30.04S
6HR MIN TEMP:  70; 6HR MAX TEMP:  85;

WICHITA JABRA  MOSUNNY   85  69  58 N14       30.03F
6HR MIN TEMP:  75; 6HR MAX TEMP:  85;

WICHITA MCCONL MOSUNNY   86  70  58 N14       30.03F
WINFIELD       SUNNY     88  72  58 N8        30.03S
6HR MIN TEMP:  69; 6HR MAX TEMP:  88;

$$

KSZ007>012-019>026-033>040-048>060-102>105-131900-
NORTHEAST KANSAS

CITY           SKY/WX    TMP DP  RH WIND       PRES   REMARKS
CONCORDIA      SUNNY     84  68  58 N12G17    30.08S
6HR MIN TEMP:  69; 6HR MAX TEMP:  84;

EMPORIA        PTSUNNY   83  69  62 NE9       30.04R
6HR MIN TEMP:  71; 6HR MAX TEMP:  84; 6HR PCP: TRACE;

LAWRENCE       PTSUNNY   87  72  60 N6        30.02F
6HR MIN TEMP:  71; 6HR MAX TEMP:  87; 6HR PCP:  0.34;

MANHATTAN      MOSUNNY   85  69  58 NE12      30.04F
6HR MIN TEMP:  72; 6HR MAX TEMP:  85;

OLATHE IND     CLOUDY    81  71  71 NW7       30.03F
6HR MIN TEMP:  72; 6HR MAX TEMP:  83; 6HR PCP:  0.11;

OLATHE EXE     PTSUNNY   82  72  71 NW6       30.02F
6HR MIN TEMP:  71; 6HR MAX TEMP:  84; 6HR PCP:  0.14;

SALINA         MOSUNNY   86  65  49 NE10      30.07S
6HR MIN TEMP:  73; 6HR MAX TEMP:  87;

TOPEKA BILLARD PTSUNNY   85  74  69 N7        30.03S
6HR MIN TEMP:  73; 6HR MAX TEMP:  85; 6HR PCP:  0.02;

TOPEKA FORBES  MOSUNNY   83  72  69 N7        30.03F
6HR MIN TEMP:  72; 6HR MAX TEMP:  85; 6HR PCP:  0.07;

$$


USA.gov is the U.S. government's official web portal to all federal, state and local government web resources and services.